When you browse on this site, cookies collect data to enhance your experience and personalize the content and advertising you see.
Visit our Privacy Policy to learn more. By continuing to use the site, you agree to this use of cookies and data.
  • în România
  • Lista ţărilor
  • Pe 7 zile
  • Temperatura apei
  • Hartă satelitară
  • Meteo pe hartă
  • Widget-uri
  • user-avatar
    Intrare

    Meteo pe oră la Achikulak

    Astăzi, 25 Aprilie, Joi

    Timp Temperatura Precipitaţii Vânt Presiune Umiditate
    00:00 +10°C° 0.3 mm 3 m/s 763 mmHg 79%
    01:00 +10°C° 0.1 mm 3 m/s 763 mmHg 81%
    02:00 +8°C° 0.1 mm 4 m/s 763 mmHg 83%
    03:00 +9°C° 0 mm 3 m/s 763 mmHg 84%
    04:00 +8°C° 0 mm 4 m/s 763 mmHg 83%
    05:00 +8°C° 0 mm 4 m/s 763 mmHg 83%
    06:00 +8°C° 0 mm 4 m/s 763 mmHg 82%
    07:00 +11°C° 0 mm 4 m/s 763 mmHg 74%
    08:00 +14°C° 0 mm 4 m/s 763 mmHg 66%
    09:00 +17°C° 0 mm 4 m/s 763 mmHg 58%
    10:00 +19°C° 0 mm 4 m/s 763 mmHg 52%
    11:00 +20°C° 0 mm 3 m/s 763 mmHg 45%
    12:00 +21°C° 0 mm 3 m/s 763 mmHg 39%
    13:00 +21°C° 0 mm 3 m/s 763 mmHg 39%
    14:00 +21°C° 0 mm 2 m/s 762 mmHg 39%
    15:00 +23°C° 0 mm 2 m/s 762 mmHg 39%
    16:00 +22°C° 0 mm 1 m/s 762 mmHg 44%
    17:00 +21°C° 0 mm 1 m/s 762 mmHg 49%
    18:00 +19°C° 0 mm 0 m/s 762 mmHg 54%
    19:00 +20°C° 0 mm 1 m/s 762 mmHg 52%
    20:00 +18°C° 0 mm 2 m/s 763 mmHg 50%
    21:00 +18°C° 0 mm 2 m/s 763 mmHg 49%
    22:00 +16°C° 0 mm 3 m/s 762 mmHg 52%
    23:00 +14°C° 0 mm 3 m/s 762 mmHg 56%

    Mâine, 26 Aprilie, Vineri

    Timp Temperatura Precipitaţii Vânt Presiune Umiditate
    00:00 +13°C° 0 mm 4 m/s 762 mmHg 59%
    01:00 +13°C° 0 mm 4 m/s 762 mmHg 60%
    02:00 +12°C° 0 mm 3 m/s 762 mmHg 62%
    03:00 +12°C° 0 mm 3 m/s 762 mmHg 63%
    04:00 +12°C° 0 mm 3 m/s 762 mmHg 65%
    05:00 +12°C° 0 mm 3 m/s 762 mmHg 66%
    06:00 +12°C° 0 mm 3 m/s 762 mmHg 68%
    07:00 +16°C° 0 mm 2 m/s 761 mmHg 61%
    08:00 +18°C° 0 mm 2 m/s 761 mmHg 55%
    09:00 +21°C° 0 mm 1 m/s 761 mmHg 48%
    10:00 +22°C° 0 mm 1 m/s 761 mmHg 44%
    11:00 +23°C° 0 mm 1 m/s 761 mmHg 40%
    12:00 +24°C° 0 mm 1 m/s 760 mmHg 36%
    13:00 +24°C° 0 mm 1 m/s 760 mmHg 35%
    14:00 +24°C° 0 mm 1 m/s 760 mmHg 35%
    15:00 +25°C° 0 mm 1 m/s 759 mmHg 34%
    16:00 +24°C° 0 mm 1 m/s 759 mmHg 38%
    17:00 +23°C° 0 mm 1 m/s 759 mmHg 42%
    18:00 +23°C° 0 mm 1 m/s 759 mmHg 46%
    19:00 +21°C° 0 mm 1 m/s 759 mmHg 48%
    20:00 +19°C° 0 mm 2 m/s 759 mmHg 49%
    21:00 +17°C° 0 mm 2 m/s 760 mmHg 50%
    22:00 +16°C° 0 mm 2 m/s 760 mmHg 53%
    23:00 +16°C° 0 mm 2 m/s 760 mmHg 55%

    Poimâine, 27 Aprilie, Sâmbătă

    Timp Temperatura Precipitaţii Vânt Presiune Umiditate
    00:00 +14°C° 0 mm 3 m/s 760 mmHg 58%
    01:00 +14°C° 0 mm 2 m/s 759 mmHg 58%
    02:00 +14°C° 0 mm 2 m/s 759 mmHg 59%
    03:00 +13°C° 0 mm 1 m/s 759 mmHg 59%
    04:00 +13°C° 0 mm 1 m/s 759 mmHg 59%
    05:00 +14°C° 0 mm 1 m/s 759 mmHg 60%
    06:00 +14°C° 0 mm 1 m/s 759 mmHg 60%
    07:00 +16°C° 0 mm 2 m/s 759 mmHg 54%
    08:00 +18°C° 0 mm 3 m/s 759 mmHg 49%
    09:00 +20°C° 0 mm 4 m/s 759 mmHg 43%
    10:00 +21°C° 0 mm 4 m/s 758 mmHg 40%
    11:00 +23°C° 0 mm 5 m/s 758 mmHg 36%
    12:00 +24°C° 0 mm 6 m/s 758 mmHg 33%
    13:00 +24°C° 0 mm 6 m/s 757 mmHg 32%
    14:00 +24°C° 0 mm 6 m/s 757 mmHg 32%
    15:00 +25°C° 0 mm 5 m/s 756 mmHg 31%
    16:00 +23°C° 0 mm 5 m/s 756 mmHg 35%
    17:00 +22°C° 0 mm 5 m/s 756 mmHg 38%
    18:00 +20°C° 0 mm 5 m/s 756 mmHg 42%
    19:00 +17°C° 0 mm 5 m/s 756 mmHg 44%
    20:00 +15°C° 0 mm 4 m/s 757 mmHg 46%
    21:00 +13°C° 0 mm 4 m/s 757 mmHg 49%
    22:00 +12°C° 0 mm 3 m/s 757 mmHg 54%
    23:00 +11°C° 0 mm 3 m/s 756 mmHg 60%

    28 Aprilie, Duminică

    Timp Temperatura Precipitaţii Vânt Presiune Umiditate
    00:00 +10°C° 0 mm 3 m/s 756 mmHg 66%
    01:00 +9°C° 0 mm 2 m/s 756 mmHg 71%
    02:00 +9°C° 0 mm 2 m/s 755 mmHg 77%
    03:00 +8°C° 0 mm 2 m/s 755 mmHg 83%
    04:00 +9°C° 0 mm 1 m/s 755 mmHg 82%
    05:00 +10°C° 0 mm 1 m/s 755 mmHg 81%
    06:00 +10°C° 0 mm 1 m/s 755 mmHg 80%
    07:00 +12°C° 0 mm 1 m/s 755 mmHg 72%
    08:00 +14°C° 0 mm 1 m/s 755 mmHg 64%
    09:00 +16°C° 0 mm 1 m/s 755 mmHg 56%
    10:00 +18°C° 0 mm 1 m/s 754 mmHg 50%
    11:00 +20°C° 0 mm 1 m/s 754 mmHg 44%
    12:00 +22°C° 0 mm 1 m/s 754 mmHg 38%
    13:00 +23°C° 0 mm 2 m/s 753 mmHg 36%
    14:00 +24°C° 0 mm 2 m/s 753 mmHg 34%
    15:00 +24°C° 0 mm 2 m/s 753 mmHg 32%
    16:00 +24°C° 0 mm 2 m/s 753 mmHg 37%
    17:00 +23°C° 0 mm 2 m/s 753 mmHg 41%
    18:00 +23°C° 0 mm 1 m/s 753 mmHg 45%
    19:00 +21°C° 0 mm 1 m/s 753 mmHg 47%
    20:00 +18°C° 0 mm 1 m/s 753 mmHg 49%
    21:00 +15°C° 0 mm 1 m/s 753 mmHg 51%
    22:00 +15°C° 0 mm 1 m/s 753 mmHg 52%
    23:00 +15°C° 0 mm 2 m/s 753 mmHg 54%

    29 Aprilie, Luni

    Timp Temperatura Precipitaţii Vânt Presiune Umiditate
    00:00 +15°C° 0 mm 2 m/s 753 mmHg 56%
    01:00 +15°C° 0 mm 2 m/s 753 mmHg 60%
    02:00 +14°C° 0 mm 2 m/s 753 mmHg 65%
    03:00 +14°C° 0 mm 2 m/s 753 mmHg 70%
    04:00 +14°C° 0 mm 2 m/s 753 mmHg 70%
    05:00 +15°C° 0 mm 2 m/s 753 mmHg 69%
    06:00 +15°C° 0 mm 2 m/s 753 mmHg 69%
    07:00 +17°C° 0 mm 2 m/s 753 mmHg 59%
    08:00 +21°C° 0 mm 1 m/s 753 mmHg 50%
    09:00 +23°C° 0 mm 1 m/s 753 mmHg 40%
    10:00 +24°C° 0 mm 1 m/s 753 mmHg 37%
    11:00 +25°C° 0 mm 1 m/s 753 mmHg 33%
    12:00 +26°C° 0 mm 2 m/s 753 mmHg 30%
    13:00 +26°C° 0 mm 2 m/s 752 mmHg 30%
    14:00 +27°C° 0 mm 2 m/s 752 mmHg 29%
    15:00 +27°C° 0 mm 3 m/s 752 mmHg 29%
    16:00 +26°C° 0 mm 3 m/s 752 mmHg 34%
    17:00 +26°C° 0 mm 2 m/s 752 mmHg 39%
    18:00 +25°C° 0 mm 2 m/s 752 mmHg 44%
    19:00 +23°C° 0 mm 2 m/s 752 mmHg 47%
    20:00 +21°C° 0 mm 2 m/s 753 mmHg 49%
    21:00 +20°C° 0 mm 2 m/s 753 mmHg 52%
    22:00 +19°C° 0.3 mm 2 m/s 753 mmHg 58%
    23:00 +18°C° 0.3 mm 3 m/s 753 mmHg 64%

    30 Aprilie, Marţi

    Timp Temperatura Precipitaţii Vânt Presiune Umiditate
    00:00 +17°C° 0.3 mm 3 m/s 753 mmHg 70%
    01:00 +17°C° 0.1 mm 3 m/s 753 mmHg 71%
    02:00 +16°C° 0.1 mm 3 m/s 753 mmHg 73%
    03:00 +14°C° 0.1 mm 3 m/s 753 mmHg 74%
    04:00 +14°C° 0 mm 3 m/s 754 mmHg 76%
    05:00 +14°C° 0 mm 3 m/s 754 mmHg 79%
    06:00 +13°C° 0 mm 4 m/s 754 mmHg 81%
    07:00 +14°C° 0 mm 4 m/s 755 mmHg 76%
    08:00 +17°C° 0 mm 4 m/s 755 mmHg 71%
    09:00 +18°C° 0 mm 4 m/s 755 mmHg 66%
    10:00 +19°C° 0 mm 4 m/s 755 mmHg 61%
    11:00 +21°C° 0 mm 4 m/s 755 mmHg 56%
    12:00 +22°C° 0 mm 4 m/s 755 mmHg 51%
    13:00 +22°C° 0 mm 4 m/s 755 mmHg 49%
    14:00 +23°C° 0 mm 5 m/s 755 mmHg 47%
    15:00 +25°C° 0 mm 5 m/s 755 mmHg 45%
    16:00 +22°C° 0 mm 6 m/s 755 mmHg 50%
    17:00 +20°C° 0 mm 6 m/s 755 mmHg 55%
    18:00 +17°C° 0 mm 7 m/s 755 mmHg 59%
    19:00 +15°C° 0 mm 7 m/s 755 mmHg 61%
    20:00 +14°C° 0 mm 6 m/s 756 mmHg 63%
    21:00 +11°C° 0 mm 6 m/s 756 mmHg 64%
    22:00 +10°C° 0 mm 5 m/s 756 mmHg 65%
    23:00 +9°C° 0 mm 5 m/s 756 mmHg 66%
    Arată mai mult